This is the latest recevied weather packets stored in our database for station/object KE8CZD. If no packets are shown the sender has not sent any weather packets the latest 10 day(s).
| Time | Temp. | Humidity | Pressure | Rain* | Wind** | Luminosity | Snow |
|---|---|---|---|---|---|---|---|
| 1777776884 | 3.33° C | 62% | 1013.7 hPa | 0 mm | - | - | - |
| 1777776164 | 3.89° C | 60% | 1013.9 hPa | 0 mm | - | - | - |
| 1777775804 | 3.89° C | 59% | 1013.9 hPa | 0 mm | - | - | - |
| 1777775445 | 3.89° C | 58% | 1013.8 hPa | 0 mm | - | - | - |
| 1777775084 | 3.89° C | 56% | 1013.8 hPa | 0 mm | - | - | - |
| 1777774725 | 4.44° C | 55% | 1013.7 hPa | 0 mm | - | - | - |
| 1777774364 | 4.44° C | 54% | 1013.7 hPa | 0 mm | - | - | - |
| 1777774004 | 4.44° C | 53% | 1013.8 hPa | 0 mm | - | - | - |
| 1777773644 | 4.44° C | 53% | 1013.6 hPa | 0 mm | - | - | - |
| 1777773284 | 5° C | 51% | 1013.6 hPa | 0 mm | - | - | - |
| 1777772925 | 5° C | 51% | 1013.6 hPa | 0 mm | - | - | - |
| 1777772204 | 5° C | 51% | 1013.4 hPa | 0 mm | - | - | - |
| 1777771844 | 5° C | 51% | 1013.5 hPa | 0 mm | - | - | - |
| 1777771484 | 5.56° C | 50% | 1013.4 hPa | 0 mm | - | - | - |
| 1777771124 | 5.56° C | 50% | 1013.4 hPa | 0 mm | - | - | - |
| 1777770764 | 5.56° C | 49% | 1013.4 hPa | 0 mm | - | - | - |
| 1777770404 | 5.56° C | 48% | 1013.3 hPa | 0 mm | - | - | - |
| 1777770045 | 6.11° C | 47% | 1013.3 hPa | 0 mm | - | - | - |
| 1777769684 | 6.67° C | 40% | 1013.3 hPa | 0 mm | - | - | - |
| 1777769324 | 7.22° C | 39% | 1013.1 hPa | 0 mm | - | - | - |
| 1777768964 | 7.22° C | 39% | 1013 hPa | 0 mm | - | - | - |
| 1777768604 | 7.22° C | 38% | 1013 hPa | 0 mm | - | - | - |
| 1777768245 | 7.78° C | 38% | 1012.9 hPa | 0 mm | - | - | - |
| 1777767884 | 7.78° C | 36% | 1012.8 hPa | 0 mm | - | - | - |
| 1777767524 | 8.33° C | 36% | 1012.8 hPa | 0 mm | - | - | - |
* Rain latest hour (hover to see other rain measurements)
** Current wind speed in m/s (hover to see current wind gust speed)